Photometre #846[NE_1.6_Dp] Lerwick_MO AOT

File : 20221128_846.hum

28/11/2022,09:07:37,TEMP=8.5,BA=5.68,STAT.h
28/11/2022,09:07:38,TEMP=8.5,BA=5.68,STAT.h
28/11/2022,09:22:37,TEMP=8.5,BA=5.68,STAT.h
28/11/2022,09:22:38,TEMP=8.5,BA=5.68,STAT.h
28/11/2022,09:37:54,TEMP=8.5,BA=5.68,STAT.h
28/11/2022,09:37:59,TEMP=8.5,BA=5.68,STAT.h
28/11/2022,09:53:01,TEMP=9.3,BA=5.68,STAT.F,ExtBa=12.40
28/11/2022,10:09:29,TEMP=9.4,BA=5.64,STAT.D,ExtBa=12.40
28/11/2022,10:23:00,TEMP=9.9,BA=5.64,STAT.D,ExtBa=12.40
28/11/2022,10:38:00,TEMP=10.2,BA=5.64,STAT.D,ExtBa=12.40
28/11/2022,10:53:02,TEMP=10.4,BA=5.64,STAT.F,ExtBa=12.40
28/11/2022,11:24:17,TEMP=11.0,BA=5.60,STAT.D,ExtBa=12.20
28/11/2022,11:37:42,TEMP=10.2,BA=5.60,STAT.D,ExtBa=12.30
28/11/2022,11:51:37,TEMP=10.2,BA=5.60,STAT.D,ExtBa=12.30
28/11/2022,12:06:11,TEMP=10.2,BA=5.60,STAT.F,ExtBa=12.30
28/11/2022,12:36:27,TEMP=10.8,BA=5.60,STAT.D,ExtBa=12.10
28/11/2022,12:50:38,TEMP=10.1,BA=5.60,STAT.D,ExtBa=12.30
28/11/2022,13:04:03,TEMP=10.1,BA=5.60,STAT.D,ExtBa=12.30
28/11/2022,13:17:35,TEMP=10.0,BA=5.60,STAT.F,ExtBa=12.30
28/11/2022,13:46:37,TEMP=10.4,BA=5.56,STAT.D,ExtBa=12.10
28/11/2022,14:04:17,TEMP=9.2,BA=5.60,STAT.D,ExtBa=12.30
28/11/2022,14:21:53,TEMP=8.9,BA=5.60,STAT.D,ExtBa=12.30
28/11/2022,14:35:18,TEMP=9.1,BA=5.60,STAT.F,ExtBa=12.30
28/11/2022,14:37:14,TEMP=9.5,BA=5.60,STAT.D,ExtBa=12.20
28/11/2022,14:50:39,TEMP=8.9,BA=5.60,STAT.D,ExtBa=12.30
28/11/2022,15:04:04,TEMP=8.7,BA=5.60,STAT.D,ExtBa=12.30